Angel Fire, NM

10:38 PM MDT on October 16, 2017 (GMT -0600)
Angel Fire

Weather History for KAXX - March, 2013

Change the Weather History Date:

Thursday, March 7, 2013

  Actual Average (KSKX) Record (KSKX)
Temperature  
Mean Temperature 38 °F -  
Max Temperature 52 °F 48 °F 62 °F (2013)
Min Temperature 24 °F 18 °F 6 °F (2008)
Degree Days  
Heating Degree Days 26    
Moisture  
Dew Point 16 °F    
Average Humidity 43    
Maximum Humidity 84    
Minimum Humidity 19    
Precipitation  
Precipitation 0.00 in - - ()
Sea Level Pressure  
Sea Level Pressure 30.10 in    
Wind  
Wind Speed 7 mph (WSW)    
Max Wind Speed 23 mph    
Max Gust Speed 34 mph    
Visibility 10 miles    
Events      
Averages and records for this station are not official NWS values.
T = Trace of Precipitation, MM = Missing Value Source: NWS Daily Summary

Daily Weather History Graph

Daily Weather History Graph

Search for Another Location

Airport or City:

Trip Planner

Search our weather history database for the weather conditions in past years. The results will help you decide how hot, cold, wet, or windy it might be!

Date:

Astronomy

Mar. 07, 2013 Rise Set
Actual Time 6:22 AM MST 6:01 PM MST
Civil Twilight 5:57 AM MST 6:27 PM MST
Nautical Twilight 5:27 AM MST 6:57 PM MST
Astronomical Twilight 4:57 AM MST 7:27 PM MST
Moon 3:18 AM MST (3/7) 1:58 PM MST (3/7)
Length of Visible Light 12h 30m
Length of Day
11h 38m
Waning Crescent, 19% of the Moon is Illuminated
Mar 7
Waning Crescent
Mar 11
New
Mar 19
First Quarter
Mar 27
Full
Apr 2
Last Quarter

Hourly Weather History & Observations

Time (MST) Temp. Windchill Dew Point Humidity Pressure Visibility Wind Dir Wind Speed Gust Speed Precip Events Conditions
12:15 AM 29.5 °F - 20.5 °F 69% 30.10 in 10.0 mi Calm Calm - N/A   Clear
12:35 AM 29.1 °F - 20.8 °F 71% 30.10 in 10.0 mi Calm Calm - N/A   Clear
12:55 AM 28.0 °F - 21.0 °F 75% 30.10 in 10.0 mi Calm Calm - N/A   Clear
1:15 AM 29.8 °F - 20.1 °F 67% 30.10 in 10.0 mi Calm Calm - N/A   Clear
1:35 AM 31.3 °F 25.6 °F 18.9 °F 60% 30.10 in 10.0 mi North 5.8 mph - N/A   Clear
1:55 AM 38.8 °F 33.8 °F 14.5 °F 37% 30.09 in 10.0 mi West 6.9 mph - N/A   Clear
2:15 AM 40.5 °F 35.1 °F 12.7 °F 32% 30.09 in 10.0 mi West 8.1 mph - N/A   Clear
2:35 AM 39.9 °F 31.1 °F 13.6 °F 34% 30.07 in 10.0 mi West 17.3 mph 23.0 mph N/A   Clear
2:55 AM 40.1 °F 30.5 °F 15.1 °F 36% 30.07 in 10.0 mi West 20.7 mph 27.6 mph N/A   Clear
3:15 AM 39.7 °F 31.5 °F 14.4 °F 36% 30.07 in 10.0 mi West 15.0 mph 26.5 mph N/A   Clear
3:55 AM 38.8 °F 31.6 °F 13.5 °F 35% 30.07 in 10.0 mi West 11.5 mph 18.4 mph N/A   Clear
4:15 AM 39.2 °F 33.6 °F 12.6 °F 34% 30.07 in 10.0 mi West 8.1 mph - N/A   Clear
4:35 AM 39.0 °F 33.4 °F 12.0 °F 33% 30.07 in 10.0 mi West 8.1 mph - N/A   Clear
4:55 AM 39.2 °F 33.6 °F 13.1 °F 34% 30.08 in 10.0 mi WSW 8.1 mph 17.3 mph N/A   Clear
5:15 AM 38.7 °F 30.9 °F 15.4 °F 39% 30.08 in 10.0 mi West 12.7 mph 29.9 mph N/A   Clear
5:35 AM 38.7 °F 32.9 °F 14.5 °F 37% 30.09 in 10.0 mi WSW 8.1 mph 20.7 mph N/A   Clear
5:55 AM 37.9 °F 30.0 °F 14.5 °F 38% 30.09 in 10.0 mi WSW 12.7 mph 19.6 mph N/A   Clear
6:15 AM 37.6 °F 33.1 °F 14.4 °F 39% 30.10 in 10.0 mi SSW 5.8 mph 16.1 mph N/A   Clear
6:35 AM 37.6 °F 33.1 °F 14.0 °F 38% 30.11 in 10.0 mi SSW 5.8 mph - N/A   Clear
6:55 AM 37.4 °F 33.8 °F 14.2 °F 39% 30.11 in 10.0 mi ESE 4.6 mph - N/A   Clear
7:15 AM 35.4 °F 27.8 °F 17.4 °F 48% 30.13 in 10.0 mi WSW 10.4 mph 16.1 mph N/A   Clear
7:35 AM 37.8 °F 30.2 °F 16.3 °F 42% 30.14 in 10.0 mi SW 11.5 mph 16.1 mph N/A   Clear
7:55 AM 40.1 °F 29.9 °F 16.9 °F 39% 30.13 in 10.0 mi West 23.0 mph 27.6 mph N/A   Clear
8:15 AM 41.0 °F 33.5 °F 15.8 °F 36% 30.14 in 10.0 mi West 13.8 mph 27.6 mph N/A   Clear
8:35 AM 41.9 °F 35.0 °F 15.8 °F 35% 30.15 in 10.0 mi WSW 12.7 mph 18.4 mph N/A   Clear
8:55 AM 43.5 °F - 14.0 °F 30% 30.15 in 10.0 mi Calm Calm - N/A   Clear
9:15 AM 44.4 °F 40.0 °F 14.0 °F 29% 30.15 in 10.0 mi SW 8.1 mph - N/A   Clear
9:35 AM 44.1 °F 35.2 °F 15.4 °F 32% 30.14 in 10.0 mi WSW 23.0 mph 34.5 mph N/A   Clear
9:55 AM 44.4 °F 39.0 °F 16.0 °F 32% 30.16 in 10.0 mi West 10.4 mph 21.9 mph N/A   Clear
10:15 AM 44.8 °F 38.3 °F 16.3 °F 32% 30.15 in 10.0 mi West 13.8 mph 19.6 mph N/A   Clear
10:35 AM 45.0 °F 40.1 °F 17.1 °F 33% 30.15 in 10.0 mi West 9.2 mph 24.2 mph N/A   Clear
10:55 AM 46.4 °F 40.7 °F 16.2 °F 30% 30.15 in 10.0 mi WSW 12.7 mph 18.4 mph N/A   Clear
11:15 AM 46.4 °F 41.5 °F 16.3 °F 30% 30.15 in 10.0 mi West 10.4 mph 17.3 mph N/A   Clear
11:35 AM 46.9 °F - 15.6 °F 29% 30.15 in 10.0 mi West 12.7 mph 19.6 mph N/A   Clear
11:55 AM 47.5 °F - 15.1 °F 27% 30.14 in 10.0 mi WSW 10.4 mph 16.1 mph N/A   Clear
12:15 PM 48.4 °F - 14.9 °F 26% 30.13 in 10.0 mi West 9.2 mph - N/A   Clear
12:35 PM 49.1 °F - 12.2 °F 23% 30.12 in 10.0 mi West 11.5 mph 25.3 mph N/A   Clear
12:55 PM 49.6 °F - 12.6 °F 23% 30.11 in 10.0 mi WNW 10.4 mph 19.6 mph N/A   Clear
1:15 PM 50.0 °F - 14.0 °F 24% 30.10 in 10.0 mi West 11.5 mph 21.9 mph N/A   Clear
1:35 PM 50.2 °F - 15.1 °F 25% 30.10 in 10.0 mi West 16.1 mph 21.9 mph N/A   Clear
1:55 PM 51.1 °F - 13.8 °F 23% 30.09 in 10.0 mi SW 9.2 mph 19.6 mph N/A   Clear
2:15 PM 51.8 °F - 11.5 °F 20% 30.08 in 10.0 mi WSW 5.8 mph 18.4 mph N/A   Clear
2:35 PM 52.0 °F - 15.3 °F 23% 30.08 in 10.0 mi West 9.2 mph 16.1 mph N/A   Clear
2:55 PM 52.0 °F - 14.7 °F 23% 30.08 in 10.0 mi WNW 9.2 mph - N/A   Clear
3:15 PM 52.7 °F - 16.0 °F 23% 30.08 in 10.0 mi SW 9.2 mph - N/A   Clear
3:35 PM 52.0 °F - 13.1 °F 21% 30.07 in 10.0 mi WSW 11.5 mph 18.4 mph N/A   Clear
3:55 PM 52.2 °F - 15.8 °F 24% 30.06 in 10.0 mi WSW 5.8 mph 18.4 mph N/A   Clear
4:15 PM 52.2 °F - 11.1 °F 19% 30.06 in 10.0 mi SW 16.1 mph 23.0 mph N/A   Clear
4:35 PM 50.5 °F - 10.2 °F 20% 30.06 in 10.0 mi WSW 17.3 mph 20.7 mph N/A   Clear
4:55 PM 50.7 °F - 9.0 °F 19% 30.06 in 10.0 mi SW 12.7 mph 21.9 mph N/A   Clear
6:35 PM 39.0 °F - 18.7 °F 44% 30.07 in 10.0 mi Calm Calm - N/A   Clear
6:55 PM 35.8 °F - 19.2 °F 51% 30.08 in 10.0 mi Calm Calm - N/A   Clear
7:15 PM 34.5 °F 31.6 °F 18.1 °F 51% 30.09 in 10.0 mi South 3.5 mph - N/A   Clear
7:35 PM 32.4 °F 27.9 °F 19.9 °F 60% 30.09 in 10.0 mi SSW 4.6 mph - N/A   Clear
7:55 PM 31.6 °F - 20.1 °F 62% 30.09 in 10.0 mi Calm Calm - N/A   Clear
8:15 PM 32.2 °F - 19.6 °F 60% 30.09 in 10.0 mi Calm Calm - N/A   Clear
8:35 PM 29.3 °F - 21.2 °F 72% 30.09 in 10.0 mi Calm Calm - N/A   Clear
8:55 PM 29.7 °F - 20.8 °F 70% 30.10 in 10.0 mi Calm Calm - N/A   Clear
9:15 PM 29.8 °F - 20.3 °F 68% 30.10 in 10.0 mi Calm Calm - N/A   Clear
9:35 PM 27.7 °F - 21.6 °F 78% 30.11 in 10.0 mi Calm Calm - N/A   Clear
9:55 PM 26.1 °F - 21.7 °F 84% 30.11 in 10.0 mi Calm Calm - N/A   Clear
10:15 PM 26.4 °F - 21.6 °F 82% 30.11 in 10.0 mi Calm Calm - N/A   Clear
10:35 PM 26.1 °F - 21.2 °F 82% 30.10 in 10.0 mi Calm Calm - N/A   Clear
10:55 PM 25.7 °F - 20.7 °F 81% 30.10 in 10.0 mi Calm Calm - N/A   Clear
11:15 PM 25.7 °F - 20.5 °F 81% 30.09 in 10.0 mi Calm Calm - N/A   Clear
11:35 PM 25.0 °F - 19.8 °F 81% 30.10 in 10.0 mi Calm Calm - N/A   Clear
11:55 PM 24.3 °F - 19.9 °F 84% 30.09 in 10.0 mi Calm Calm - N/A   Clear